Year,Month,Day,Hour,Minute,Value (Times are PST for temperature in C)
2017,07,14,00,00,15.80
2017,07,14,00,01,15.80
2017,07,14,00,02,15.70
2017,07,14,00,03,15.70
2017,07,14,00,04,15.70
2017,07,14,00,05,15.60
2017,07,14,00,06,15.60
2017,07,14,00,07,15.60
2017,07,14,00,08,15.60
2017,07,14,00,09,15.60
2017,07,14,00,10,15.60
2017,07,14,00,11,15.60
2017,07,14,00,12,15.60
2017,07,14,00,13,15.60
2017,07,14,00,14,15.60
2017,07,14,00,15,15.50
2017,07,14,00,16,15.50
2017,07,14,00,17,15.50
2017,07,14,00,18,15.40
2017,07,14,00,19,15.40
2017,07,14,00,20,15.40
2017,07,14,00,21,15.40
2017,07,14,00,22,15.40
2017,07,14,00,23,15.30
2017,07,14,00,24,15.30
2017,07,14,00,25,15.30
2017,07,14,00,26,15.30
2017,07,14,00,27,15.30
2017,07,14,00,28,15.20
2017,07,14,00,29,15.20
2017,07,14,00,30,15.20
2017,07,14,00,31,15.10
2017,07,14,00,32,15.10
2017,07,14,00,33,15.10
2017,07,14,00,34,15.00
2017,07,14,00,35,15.00
2017,07,14,00,36,15.00
2017,07,14,00,37,15.00
2017,07,14,00,38,15.00
2017,07,14,00,39,15.00
2017,07,14,00,40,14.90
2017,07,14,00,41,14.90
2017,07,14,00,42,14.90
2017,07,14,00,43,14.90
2017,07,14,00,44,14.90
2017,07,14,00,45,14.80
2017,07,14,00,46,14.80
2017,07,14,00,47,14.80
2017,07,14,00,48,14.80
2017,07,14,00,49,14.70
2017,07,14,00,50,14.70
2017,07,14,00,51,14.70
2017,07,14,00,52,14.70
2017,07,14,00,53,14.70
2017,07,14,00,54,14.70
2017,07,14,00,55,14.70
2017,07,14,00,56,14.70
2017,07,14,00,57,14.70
2017,07,14,00,58,14.70
2017,07,14,00,59,14.60
2017,07,14,01,00,14.60
2017,07,14,01,01,14.60
2017,07,14,01,02,14.60
2017,07,14,01,03,14.60
2017,07,14,01,04,14.60
2017,07,14,01,05,14.60
2017,07,14,01,06,14.60
2017,07,14,01,07,14.60
2017,07,14,01,08,14.60
2017,07,14,01,09,14.60
2017,07,14,01,10,14.60
2017,07,14,01,11,14.50
2017,07,14,01,12,14.50
2017,07,14,01,13,14.50
2017,07,14,01,14,14.50
2017,07,14,01,15,14.50
2017,07,14,01,16,14.40
2017,07,14,01,17,14.40
2017,07,14,01,18,14.40
2017,07,14,01,19,14.40
2017,07,14,01,20,14.40
2017,07,14,01,21,14.40
2017,07,14,01,22,14.40
2017,07,14,01,23,14.50
2017,07,14,01,24,14.50
2017,07,14,01,25,14.50
2017,07,14,01,26,14.50
2017,07,14,01,27,14.50
2017,07,14,01,28,14.50
2017,07,14,01,29,14.60
2017,07,14,01,30,14.60
2017,07,14,01,31,14.60
2017,07,14,01,32,14.60
2017,07,14,01,33,14.60
2017,07,14,01,34,14.60
2017,07,14,01,35,14.60
2017,07,14,01,36,14.60
2017,07,14,01,37,14.60
2017,07,14,01,38,14.60
2017,07,14,01,39,14.60
2017,07,14,01,40,14.60
2017,07,14,01,41,14.60
2017,07,14,01,42,14.60
2017,07,14,01,43,14.60
2017,07,14,01,44,14.70
2017,07,14,01,45,14.70
2017,07,14,01,46,14.70
2017,07,14,01,47,14.70
2017,07,14,01,48,14.70
2017,07,14,01,49,14.70
2017,07,14,01,50,14.70
2017,07,14,01,51,14.70
2017,07,14,01,52,14.70
2017,07,14,01,53,14.70
2017,07,14,01,54,14.80
2017,07,14,01,55,14.80
2017,07,14,01,56,14.80
2017,07,14,01,57,14.70
2017,07,14,01,58,14.80
2017,07,14,01,59,14.80
2017,07,14,02,00,14.80
2017,07,14,02,01,14.80
2017,07,14,02,02,14.80
2017,07,14,02,03,14.80
2017,07,14,02,04,14.80
2017,07,14,02,05,14.80
2017,07,14,02,06,14.80
2017,07,14,02,07,14.80
2017,07,14,02,08,14.80
2017,07,14,02,09,14.80
2017,07,14,02,10,14.80
2017,07,14,02,11,14.80
2017,07,14,02,12,14.80
2017,07,14,02,13,14.80
2017,07,14,02,14,14.80
2017,07,14,02,15,14.80
2017,07,14,02,16,14.80
2017,07,14,02,17,14.80
2017,07,14,02,18,14.80
2017,07,14,02,19,14.90
2017,07,14,02,20,14.90
2017,07,14,02,21,14.90
2017,07,14,02,22,14.90
2017,07,14,02,23,14.90
2017,07,14,02,24,14.90
2017,07,14,02,25,14.90
2017,07,14,02,26,14.90
2017,07,14,02,27,14.90
2017,07,14,02,28,14.90
2017,07,14,02,29,14.90
2017,07,14,02,30,14.90
2017,07,14,02,31,14.90
2017,07,14,02,32,14.90
2017,07,14,02,33,14.90
2017,07,14,02,34,15.00
2017,07,14,02,35,15.00
2017,07,14,02,36,15.00
2017,07,14,02,37,15.00
2017,07,14,02,38,15.00
2017,07,14,02,39,15.10
2017,07,14,02,40,15.10
2017,07,14,02,41,15.00
2017,07,14,02,42,15.00
2017,07,14,02,43,15.00
2017,07,14,02,44,15.00
2017,07,14,02,45,15.00
2017,07,14,02,46,15.00
2017,07,14,02,47,15.10
2017,07,14,02,48,15.10
2017,07,14,02,49,15.10
2017,07,14,02,50,15.00
2017,07,14,02,51,15.00
2017,07,14,02,52,15.00
2017,07,14,02,53,15.00
2017,07,14,02,54,15.00
2017,07,14,02,55,15.00
2017,07,14,02,56,15.00
2017,07,14,02,57,15.00
2017,07,14,02,58,15.00
2017,07,14,02,59,15.00
2017,07,14,03,00,15.00
2017,07,14,03,01,15.00
2017,07,14,03,02,15.10
2017,07,14,03,03,15.10
2017,07,14,03,04,15.10
2017,07,14,03,05,15.10
2017,07,14,03,06,15.10
2017,07,14,03,07,15.20
2017,07,14,03,08,15.20
2017,07,14,03,09,15.10
2017,07,14,03,10,15.20
2017,07,14,03,11,15.20
2017,07,14,03,12,15.20
2017,07,14,03,13,15.20
2017,07,14,03,14,15.20
2017,07,14,03,15,15.10
2017,07,14,03,16,15.10
2017,07,14,03,17,15.20
2017,07,14,03,18,15.20
2017,07,14,03,19,15.10
2017,07,14,03,20,15.10
2017,07,14,03,21,15.10
2017,07,14,03,22,15.10
2017,07,14,03,23,15.10
2017,07,14,03,24,15.10
2017,07,14,03,25,15.10
2017,07,14,03,26,15.10
2017,07,14,03,27,15.10
2017,07,14,03,28,15.00
2017,07,14,03,29,15.10
2017,07,14,03,30,15.10
2017,07,14,03,31,15.10
2017,07,14,03,32,15.10
2017,07,14,03,33,15.10
2017,07,14,03,34,15.10
2017,07,14,03,35,15.10
2017,07,14,03,36,15.10
2017,07,14,03,37,15.10
2017,07,14,03,38,15.00
2017,07,14,03,39,15.00
2017,07,14,03,40,15.00
2017,07,14,03,41,15.00
2017,07,14,03,42,14.90
2017,07,14,03,43,14.90
2017,07,14,03,44,14.90
2017,07,14,03,45,14.90
2017,07,14,03,46,14.90
2017,07,14,03,47,14.90
2017,07,14,03,48,14.90
2017,07,14,03,49,14.90
2017,07,14,03,50,14.90
2017,07,14,03,51,14.90
2017,07,14,03,52,14.90
2017,07,14,03,53,14.90
2017,07,14,03,54,14.80
2017,07,14,03,55,14.80
2017,07,14,03,56,14.80
2017,07,14,03,57,14.80
2017,07,14,03,58,14.80
2017,07,14,03,59,14.80
2017,07,14,04,00,14.80
2017,07,14,04,01,14.80
2017,07,14,04,02,14.80
2017,07,14,04,03,14.80
2017,07,14,04,04,14.80
2017,07,14,04,05,14.80
2017,07,14,04,06,14.70
2017,07,14,04,07,14.70
2017,07,14,04,08,14.70
2017,07,14,04,09,14.70
2017,07,14,04,10,14.70
2017,07,14,04,11,14.70
2017,07,14,04,12,14.70
2017,07,14,04,13,14.70
2017,07,14,04,14,14.70
2017,07,14,04,15,14.70
2017,07,14,04,16,14.70
2017,07,14,04,17,14.60
2017,07,14,04,18,14.60
2017,07,14,04,19,14.60
2017,07,14,04,20,14.60
2017,07,14,04,21,14.60
2017,07,14,04,22,14.50
2017,07,14,04,23,14.50
2017,07,14,04,24,14.50
2017,07,14,04,25,14.50
2017,07,14,04,26,14.60
2017,07,14,04,27,14.60
2017,07,14,04,28,14.60
2017,07,14,04,29,14.50
2017,07,14,04,30,14.50
2017,07,14,04,31,14.50
2017,07,14,04,32,14.50
2017,07,14,04,33,14.50
2017,07,14,04,34,14.50
2017,07,14,04,35,14.50
2017,07,14,04,36,14.40
2017,07,14,04,37,14.40
2017,07,14,04,38,14.40
2017,07,14,04,39,14.40
2017,07,14,04,40,14.40
2017,07,14,04,41,14.40
2017,07,14,04,42,14.30
2017,07,14,04,43,14.30
2017,07,14,04,44,14.30
2017,07,14,04,45,14.30
2017,07,14,04,46,14.30
2017,07,14,04,47,14.30
2017,07,14,04,48,14.30
2017,07,14,04,49,14.20
2017,07,14,04,50,14.20
2017,07,14,04,51,14.20
2017,07,14,04,52,14.20
2017,07,14,04,53,14.20
2017,07,14,04,54,14.20
2017,07,14,04,55,14.20
2017,07,14,04,56,14.20
2017,07,14,04,57,14.20
2017,07,14,04,58,14.20
2017,07,14,04,59,14.10
2017,07,14,05,00,14.10
2017,07,14,05,01,14.10
2017,07,14,05,02,14.10
2017,07,14,05,03,14.10
2017,07,14,05,04,14.10
2017,07,14,05,05,14.10
2017,07,14,05,06,14.10
2017,07,14,05,07,14.00
2017,07,14,05,08,14.00
2017,07,14,05,09,14.00
2017,07,14,05,10,14.00
2017,07,14,05,11,14.00
2017,07,14,05,12,14.00
2017,07,14,05,13,14.00
2017,07,14,05,14,14.00
2017,07,14,05,15,14.00
2017,07,14,05,16,14.00
2017,07,14,05,17,14.00
2017,07,14,05,18,14.00
2017,07,14,05,19,14.00
2017,07,14,05,20,14.00
2017,07,14,05,21,14.00
2017,07,14,05,22,14.00
2017,07,14,05,23,14.00
2017,07,14,05,24,14.00
2017,07,14,05,25,14.00
2017,07,14,05,26,14.00
2017,07,14,05,27,13.90
2017,07,14,05,28,13.90
2017,07,14,05,29,13.90
2017,07,14,05,30,13.90
2017,07,14,05,31,13.90
2017,07,14,05,32,13.90
2017,07,14,05,33,13.90
2017,07,14,05,34,13.90
2017,07,14,05,35,13.90
2017,07,14,05,36,13.90
2017,07,14,05,37,13.90
2017,07,14,05,38,13.90
2017,07,14,05,39,13.90
2017,07,14,05,40,13.90
2017,07,14,05,41,13.90
2017,07,14,05,42,13.90
2017,07,14,05,43,13.90
2017,07,14,05,44,13.90
2017,07,14,05,45,13.80
2017,07,14,05,46,13.80
2017,07,14,05,47,13.80
2017,07,14,05,48,13.80
2017,07,14,05,49,13.80
2017,07,14,05,50,13.80
2017,07,14,05,51,13.80
2017,07,14,05,52,13.80
2017,07,14,05,53,13.80
2017,07,14,05,54,13.80
2017,07,14,05,55,13.80
2017,07,14,05,56,13.80
2017,07,14,05,57,13.80
2017,07,14,05,58,13.80
2017,07,14,05,59,13.80
2017,07,14,06,00,13.80
2017,07,14,06,01,13.80
2017,07,14,06,02,13.70
2017,07,14,06,03,13.70
2017,07,14,06,04,13.70
2017,07,14,06,05,13.70
2017,07,14,06,06,13.70
2017,07,14,06,07,13.70
2017,07,14,06,08,13.70
2017,07,14,06,09,13.70
2017,07,14,06,10,13.70
2017,07,14,06,11,13.70
2017,07,14,06,12,13.70
2017,07,14,06,13,13.70
2017,07,14,06,14,13.70
2017,07,14,06,15,13.60
2017,07,14,06,16,13.60
2017,07,14,06,17,13.60
2017,07,14,06,18,13.60
2017,07,14,06,19,13.60
2017,07,14,06,20,13.60
2017,07,14,06,21,13.60
2017,07,14,06,22,13.60
2017,07,14,06,23,13.60
2017,07,14,06,24,13.60
2017,07,14,06,25,13.60
2017,07,14,06,26,13.60
2017,07,14,06,27,13.60
2017,07,14,06,28,13.60
2017,07,14,06,29,13.70
2017,07,14,06,30,13.70
2017,07,14,06,31,13.70
2017,07,14,06,32,13.70
2017,07,14,06,33,13.70
2017,07,14,06,34,13.70
2017,07,14,06,35,13.70
2017,07,14,06,36,13.80
2017,07,14,06,37,13.80
2017,07,14,06,38,13.80
2017,07,14,06,39,13.80
2017,07,14,06,40,13.80
2017,07,14,06,41,13.90
2017,07,14,06,42,13.90
2017,07,14,06,43,13.90
2017,07,14,06,44,13.90
2017,07,14,06,45,13.90
2017,07,14,06,46,13.90
2017,07,14,06,47,13.90
2017,07,14,06,48,14.00
2017,07,14,06,49,14.00
2017,07,14,06,50,14.00
2017,07,14,06,51,14.00
2017,07,14,06,52,14.10
2017,07,14,06,53,14.10
2017,07,14,06,54,14.10
2017,07,14,06,55,14.10
2017,07,14,06,56,14.10
2017,07,14,06,57,14.10
2017,07,14,06,58,14.20
2017,07,14,06,59,14.20
2017,07,14,07,00,14.20
2017,07,14,07,01,14.20
2017,07,14,07,02,14.20
2017,07,14,07,03,14.30
2017,07,14,07,04,14.30
2017,07,14,07,05,14.30
2017,07,14,07,06,14.40
2017,07,14,07,07,14.40
2017,07,14,07,08,14.40
2017,07,14,07,09,14.50
2017,07,14,07,10,14.50
2017,07,14,07,11,14.60
2017,07,14,07,12,14.60
2017,07,14,07,13,14.60
2017,07,14,07,14,14.70
2017,07,14,07,15,14.70
2017,07,14,07,16,14.80
2017,07,14,07,17,14.90
2017,07,14,07,18,14.90
2017,07,14,07,19,15.00
2017,07,14,07,20,15.00
2017,07,14,07,21,15.10
2017,07,14,07,22,15.10
2017,07,14,07,23,15.20
2017,07,14,07,24,15.20
2017,07,14,07,25,15.30
2017,07,14,07,26,15.40
2017,07,14,07,27,15.40
2017,07,14,07,28,15.50
2017,07,14,07,29,15.60
2017,07,14,07,30,15.60
2017,07,14,07,31,15.70
2017,07,14,07,32,15.70
2017,07,14,07,33,15.80
2017,07,14,07,34,15.90
2017,07,14,07,35,15.90
2017,07,14,07,36,15.90
2017,07,14,07,37,15.90
2017,07,14,07,38,16.00
2017,07,14,07,39,16.00
2017,07,14,07,40,16.10
2017,07,14,07,41,16.10
2017,07,14,07,42,16.10
2017,07,14,07,43,16.20
2017,07,14,07,44,16.20
2017,07,14,07,45,16.30
2017,07,14,07,46,16.30
2017,07,14,07,47,16.40
2017,07,14,07,48,16.50
2017,07,14,07,49,16.50
2017,07,14,07,50,16.60
2017,07,14,07,51,16.70
2017,07,14,07,52,16.70
2017,07,14,07,53,16.70
2017,07,14,07,54,16.60
2017,07,14,07,55,16.60
2017,07,14,07,56,16.50
2017,07,14,07,57,16.50
2017,07,14,07,58,16.40
2017,07,14,07,59,16.40
2017,07,14,08,00,16.40
2017,07,14,08,01,16.40
2017,07,14,08,02,16.40
2017,07,14,08,03,16.40
2017,07,14,08,04,16.40
2017,07,14,08,05,16.40
2017,07,14,08,06,16.40
2017,07,14,08,07,16.40
2017,07,14,08,08,16.40
2017,07,14,08,09,16.50
2017,07,14,08,10,16.50
2017,07,14,08,11,16.60
2017,07,14,08,12,16.60
2017,07,14,08,13,16.60
2017,07,14,08,14,16.70
2017,07,14,08,15,16.70
2017,07,14,08,16,16.70
2017,07,14,08,17,16.80
2017,07,14,08,18,16.90
2017,07,14,08,19,17.00
2017,07,14,08,20,17.00
2017,07,14,08,21,17.10
2017,07,14,08,22,17.10
2017,07,14,08,23,17.10
2017,07,14,08,24,17.00
2017,07,14,08,25,17.00
2017,07,14,08,26,17.00
2017,07,14,08,27,16.90
2017,07,14,08,28,16.90
2017,07,14,08,29,16.90
2017,07,14,08,30,16.90
2017,07,14,08,31,16.90
2017,07,14,08,32,16.90
2017,07,14,08,33,17.00
2017,07,14,08,34,17.00
2017,07,14,08,35,17.00
2017,07,14,08,36,17.00
2017,07,14,08,37,16.90
2017,07,14,08,38,17.00
2017,07,14,08,39,17.00
2017,07,14,08,40,17.00
2017,07,14,08,41,17.10
2017,07,14,08,42,17.20
2017,07,14,08,43,17.30
2017,07,14,08,44,17.30
2017,07,14,08,45,17.40
2017,07,14,08,46,17.40
2017,07,14,08,47,17.40
2017,07,14,08,48,17.50
2017,07,14,08,49,17.60
2017,07,14,08,50,17.60
2017,07,14,08,51,17.70
2017,07,14,08,52,17.70
2017,07,14,08,53,17.70
2017,07,14,08,54,17.70
2017,07,14,08,55,17.70
2017,07,14,08,56,17.70
2017,07,14,08,57,17.70
2017,07,14,08,58,17.80
2017,07,14,08,59,17.80
2017,07,14,09,00,17.80
2017,07,14,09,01,17.70
2017,07,14,09,02,17.80
2017,07,14,09,03,17.70
2017,07,14,09,04,17.70
2017,07,14,09,05,17.80
2017,07,14,09,06,17.80
2017,07,14,09,07,17.80
2017,07,14,09,08,17.90
2017,07,14,09,09,17.90
2017,07,14,09,10,17.90
2017,07,14,09,11,17.80
2017,07,14,09,12,17.90
2017,07,14,09,13,17.90
2017,07,14,09,14,18.00
2017,07,14,09,15,18.10
2017,07,14,09,16,18.20
2017,07,14,09,17,18.20
2017,07,14,09,18,18.30
2017,07,14,09,19,18.40
2017,07,14,09,20,18.40
2017,07,14,09,21,18.50
2017,07,14,09,22,18.50
2017,07,14,09,23,18.60
2017,07,14,09,24,18.60
2017,07,14,09,25,18.60
2017,07,14,09,26,18.60
2017,07,14,09,27,18.60
2017,07,14,09,28,18.60
2017,07,14,09,29,18.60
2017,07,14,09,30,18.60
2017,07,14,09,31,18.60
2017,07,14,09,32,18.60
2017,07,14,09,33,18.50
2017,07,14,09,34,18.50
2017,07,14,09,35,18.50
2017,07,14,09,36,18.50
2017,07,14,09,37,18.60
2017,07,14,09,38,18.60
2017,07,14,09,39,18.60
2017,07,14,09,40,18.60
2017,07,14,09,41,18.60
2017,07,14,09,42,18.70
2017,07,14,09,43,18.70
2017,07,14,09,44,18.70
2017,07,14,09,45,18.60
2017,07,14,09,46,18.60
2017,07,14,09,47,18.60
2017,07,14,09,48,18.60
2017,07,14,09,49,18.60
2017,07,14,09,50,18.70
2017,07,14,09,51,18.80
2017,07,14,09,52,18.80
2017,07,14,09,53,18.90
2017,07,14,09,54,18.90
2017,07,14,09,55,18.90
2017,07,14,09,56,18.90
2017,07,14,09,57,18.90
2017,07,14,09,58,18.90
2017,07,14,09,59,18.90
2017,07,14,10,00,19.00
2017,07,14,10,01,19.10
2017,07,14,10,02,19.20
2017,07,14,10,03,19.30
2017,07,14,10,04,19.30
2017,07,14,10,05,19.40
2017,07,14,10,06,19.40
2017,07,14,10,07,19.40
2017,07,14,10,08,19.40
2017,07,14,10,09,19.40
2017,07,14,10,10,19.30
2017,07,14,10,11,19.30
2017,07,14,10,12,19.30
2017,07,14,10,13,19.20
2017,07,14,10,14,19.30
2017,07,14,10,15,19.30
2017,07,14,10,16,19.30
2017,07,14,10,17,19.30
2017,07,14,10,18,19.30
2017,07,14,10,19,19.30
2017,07,14,10,20,19.20
2017,07,14,10,21,19.20
2017,07,14,10,22,19.30
2017,07,14,10,23,19.30
2017,07,14,10,24,19.40
2017,07,14,10,25,19.40
2017,07,14,10,26,19.30
2017,07,14,10,27,19.30
2017,07,14,10,28,19.30
2017,07,14,10,29,19.30
2017,07,14,10,30,19.30
2017,07,14,10,31,19.30
2017,07,14,10,32,19.40
2017,07,14,10,33,19.40
2017,07,14,10,34,19.50
2017,07,14,10,35,19.60
2017,07,14,10,36,19.60
2017,07,14,10,37,19.60
2017,07,14,10,38,19.70
2017,07,14,10,39,19.70
2017,07,14,10,40,19.80
2017,07,14,10,41,19.80
2017,07,14,10,42,19.80
2017,07,14,10,43,19.80
2017,07,14,10,44,19.80
2017,07,14,10,45,19.80
2017,07,14,10,46,19.80
2017,07,14,10,47,19.80
2017,07,14,10,48,19.80
2017,07,14,10,49,19.80
2017,07,14,10,50,19.60
2017,07,14,10,51,19.50
2017,07,14,10,52,19.40
2017,07,14,10,53,19.30
2017,07,14,10,54,19.30
2017,07,14,10,55,19.30
2017,07,14,10,56,19.40
2017,07,14,10,57,19.40
2017,07,14,10,58,19.40
2017,07,14,10,59,19.40
2017,07,14,11,00,19.50
2017,07,14,11,01,19.50
2017,07,14,11,02,19.50
2017,07,14,11,03,19.50
2017,07,14,11,04,19.40
2017,07,14,11,05,19.40
2017,07,14,11,06,19.40
2017,07,14,11,07,19.50
2017,07,14,11,08,19.50
2017,07,14,11,09,19.60
2017,07,14,11,10,19.60
2017,07,14,11,11,19.80
2017,07,14,11,12,19.80
2017,07,14,11,13,19.80
2017,07,14,11,14,19.80
2017,07,14,11,15,19.80
2017,07,14,11,16,19.70
2017,07,14,11,17,19.70
2017,07,14,11,18,19.70
2017,07,14,11,19,19.70
2017,07,14,11,20,19.60
2017,07,14,11,21,19.60
2017,07,14,11,22,19.60
2017,07,14,11,23,19.60
2017,07,14,11,24,19.60
2017,07,14,11,25,19.60
2017,07,14,11,26,19.70
2017,07,14,11,27,19.70
2017,07,14,11,28,19.70
2017,07,14,11,29,19.70
2017,07,14,11,30,19.70
2017,07,14,11,31,19.70
2017,07,14,11,32,19.70
2017,07,14,11,33,19.80
2017,07,14,11,34,19.80
2017,07,14,11,35,19.80
2017,07,14,11,36,19.80
2017,07,14,11,37,19.80
2017,07,14,11,38,19.70
2017,07,14,11,39,19.70
2017,07,14,11,40,19.70
2017,07,14,11,41,19.70
2017,07,14,11,42,19.70
2017,07,14,11,43,19.70
2017,07,14,11,44,19.70
2017,07,14,11,45,19.70
2017,07,14,11,46,19.80
2017,07,14,11,47,19.80
2017,07,14,11,48,19.90
2017,07,14,11,49,19.90
2017,07,14,11,50,19.90
2017,07,14,11,51,19.90
2017,07,14,11,52,19.90
2017,07,14,11,53,19.90
2017,07,14,11,54,19.90
2017,07,14,11,55,19.90
2017,07,14,11,56,19.90
2017,07,14,11,57,20.00
2017,07,14,11,58,20.00
2017,07,14,11,59,20.00
2017,07,14,12,00,20.00
2017,07,14,12,01,19.90
2017,07,14,12,02,19.90
2017,07,14,12,03,19.90
2017,07,14,12,04,19.90
2017,07,14,12,05,19.90
2017,07,14,12,06,19.80
2017,07,14,12,07,19.80
2017,07,14,12,08,19.70
2017,07,14,12,09,19.70
2017,07,14,12,10,19.70
2017,07,14,12,11,19.80
2017,07,14,12,12,19.80
2017,07,14,12,13,19.80
2017,07,14,12,14,19.80
2017,07,14,12,15,19.80
2017,07,14,12,16,19.80
2017,07,14,12,17,19.80
2017,07,14,12,18,19.80
2017,07,14,12,19,19.80
2017,07,14,12,20,19.70
2017,07,14,12,21,19.70
2017,07,14,12,22,19.70
2017,07,14,12,23,19.60
2017,07,14,12,24,19.60
2017,07,14,12,25,19.60
2017,07,14,12,26,19.70
2017,07,14,12,27,19.70
2017,07,14,12,28,19.80
2017,07,14,12,29,19.80
2017,07,14,12,30,19.80
2017,07,14,12,31,19.80
2017,07,14,12,32,19.80
2017,07,14,12,33,19.80
2017,07,14,12,34,19.90
2017,07,14,12,35,20.00
2017,07,14,12,36,20.10
2017,07,14,12,37,20.10
2017,07,14,12,38,20.10
2017,07,14,12,39,20.20
2017,07,14,12,40,20.20
2017,07,14,12,41,20.20
2017,07,14,12,42,20.10
2017,07,14,12,43,20.10
2017,07,14,12,44,20.10
2017,07,14,12,45,20.10
2017,07,14,12,46,20.20
2017,07,14,12,47,20.30
2017,07,14,12,48,20.40
2017,07,14,12,49,20.50
2017,07,14,12,50,20.70
2017,07,14,12,51,20.70
2017,07,14,12,52,20.70
2017,07,14,12,53,20.70
2017,07,14,12,54,20.60
2017,07,14,12,55,20.60
2017,07,14,12,56,20.60
2017,07,14,12,57,20.60
2017,07,14,12,58,20.70
2017,07,14,12,59,20.70
2017,07,14,13,00,20.80
2017,07,14,13,01,20.80
2017,07,14,13,02,20.80
2017,07,14,13,03,20.80
2017,07,14,13,04,20.80
2017,07,14,13,05,20.70
2017,07,14,13,06,20.70
2017,07,14,13,07,20.80
2017,07,14,13,08,20.80
2017,07,14,13,09,20.90
2017,07,14,13,10,20.90
2017,07,14,13,11,20.90
2017,07,14,13,12,20.90
2017,07,14,13,13,20.80
2017,07,14,13,14,20.80
2017,07,14,13,15,20.80
2017,07,14,13,16,20.70
2017,07,14,13,17,20.70
2017,07,14,13,18,20.70
2017,07,14,13,19,20.70
2017,07,14,13,20,20.70
2017,07,14,13,21,20.70
2017,07,14,13,22,20.70
2017,07,14,13,23,20.70
2017,07,14,13,24,20.70
2017,07,14,13,25,20.60
2017,07,14,13,26,20.60
2017,07,14,13,27,20.50
2017,07,14,13,28,20.40
2017,07,14,13,29,20.30
2017,07,14,13,30,20.30
2017,07,14,13,31,20.20
2017,07,14,13,32,20.30
2017,07,14,13,33,20.20
2017,07,14,13,34,20.20
2017,07,14,13,35,20.30
2017,07,14,13,36,20.30
2017,07,14,13,37,20.30
2017,07,14,13,38,20.30
2017,07,14,13,39,20.30
2017,07,14,13,40,20.30
2017,07,14,13,41,20.30
2017,07,14,13,42,20.30
2017,07,14,13,43,20.30
2017,07,14,13,44,20.30
2017,07,14,13,45,20.40
2017,07,14,13,46,20.40
2017,07,14,13,47,20.40
2017,07,14,13,48,20.40
2017,07,14,13,49,20.30
2017,07,14,13,50,20.30
2017,07,14,13,51,20.30
2017,07,14,13,52,20.30
2017,07,14,13,53,20.30
2017,07,14,13,54,20.20
2017,07,14,13,55,20.20
2017,07,14,13,56,20.10
2017,07,14,13,57,20.00
2017,07,14,13,58,20.00
2017,07,14,13,59,19.90
2017,07,14,14,00,19.90
2017,07,14,14,01,19.90
2017,07,14,14,02,19.90
2017,07,14,14,03,19.90
2017,07,14,14,04,19.90
2017,07,14,14,05,19.90
2017,07,14,14,06,19.90
2017,07,14,14,07,19.90
2017,07,14,14,08,19.90
2017,07,14,14,09,19.90
2017,07,14,14,10,19.90
2017,07,14,14,11,19.90
2017,07,14,14,12,19.80
2017,07,14,14,13,19.80
2017,07,14,14,14,19.80
2017,07,14,14,15,19.80
2017,07,14,14,16,19.90
2017,07,14,14,17,19.90
2017,07,14,14,18,19.90
2017,07,14,14,19,19.90
2017,07,14,14,20,19.80
2017,07,14,14,21,19.80
2017,07,14,14,22,19.80
2017,07,14,14,23,19.90
2017,07,14,14,24,20.00
2017,07,14,14,25,20.00
2017,07,14,14,26,20.10
2017,07,14,14,27,20.10
2017,07,14,14,28,20.20
2017,07,14,14,29,20.30
2017,07,14,14,30,20.30
2017,07,14,14,31,20.40
2017,07,14,14,32,20.50
2017,07,14,14,33,20.50
2017,07,14,14,34,20.60
2017,07,14,14,35,20.60
2017,07,14,14,36,20.70
2017,07,14,14,37,20.80
2017,07,14,14,38,20.90
2017,07,14,14,39,20.90
2017,07,14,14,40,21.00
2017,07,14,14,41,21.10
2017,07,14,14,42,21.00
2017,07,14,14,43,21.00
2017,07,14,14,44,21.00
2017,07,14,14,45,20.90
2017,07,14,14,46,20.90
2017,07,14,14,47,20.90
2017,07,14,14,48,21.00
2017,07,14,14,49,21.00
2017,07,14,14,50,21.10
2017,07,14,14,51,21.10
2017,07,14,14,52,21.20
2017,07,14,14,53,21.20
2017,07,14,14,54,21.30
2017,07,14,14,55,21.30
2017,07,14,14,56,21.30
2017,07,14,14,57,21.20
2017,07,14,14,58,21.10
2017,07,14,14,59,21.10
2017,07,14,15,00,21.00
2017,07,14,15,01,20.90
2017,07,14,15,02,20.90
2017,07,14,15,03,20.90
2017,07,14,15,04,21.00
2017,07,14,15,05,21.00
2017,07,14,15,06,21.10
2017,07,14,15,07,21.10
2017,07,14,15,08,21.20
2017,07,14,15,09,21.20
2017,07,14,15,10,21.30
2017,07,14,15,11,21.40
2017,07,14,15,12,21.40
2017,07,14,15,13,21.50
2017,07,14,15,14,21.60
2017,07,14,15,15,21.70
2017,07,14,15,16,21.70
2017,07,14,15,17,21.70
2017,07,14,15,18,21.70
2017,07,14,15,19,21.70
2017,07,14,15,20,21.70
2017,07,14,15,21,21.70
2017,07,14,15,22,21.70
2017,07,14,15,23,21.70
2017,07,14,15,24,21.60
2017,07,14,15,25,21.50
2017,07,14,15,26,21.50
2017,07,14,15,27,21.40
2017,07,14,15,28,21.40
2017,07,14,15,29,21.30
2017,07,14,15,30,21.30
2017,07,14,15,31,21.30
2017,07,14,15,32,21.30
2017,07,14,15,33,21.30
2017,07,14,15,34,21.30
2017,07,14,15,35,21.30
2017,07,14,15,36,21.30
2017,07,14,15,37,21.30
2017,07,14,15,38,21.30
2017,07,14,15,39,21.30
2017,07,14,15,40,21.30
2017,07,14,15,41,21.40
2017,07,14,15,42,21.50
2017,07,14,15,43,21.60
2017,07,14,15,44,21.70
2017,07,14,15,45,21.90
2017,07,14,15,46,22.00
2017,07,14,15,47,22.10
2017,07,14,15,48,22.20
2017,07,14,15,49,22.20
2017,07,14,15,50,22.20
2017,07,14,15,51,22.20
2017,07,14,15,52,22.20
2017,07,14,15,53,22.10
2017,07,14,15,54,22.20
2017,07,14,15,55,22.20
2017,07,14,15,56,22.20
2017,07,14,15,57,22.20
2017,07,14,15,58,22.20
2017,07,14,15,59,22.20
2017,07,14,16,00,22.10
2017,07,14,16,01,22.10
2017,07,14,16,02,22.10
2017,07,14,16,03,22.20
2017,07,14,16,04,22.20
2017,07,14,16,05,22.20
2017,07,14,16,06,22.20
2017,07,14,16,07,22.10
2017,07,14,16,08,22.10
2017,07,14,16,09,22.00
2017,07,14,16,10,22.00
2017,07,14,16,11,22.00
2017,07,14,16,12,22.00
2017,07,14,16,13,22.00
2017,07,14,16,14,22.00
2017,07,14,16,15,21.90
2017,07,14,16,16,21.90
2017,07,14,16,17,21.90
2017,07,14,16,18,21.90
2017,07,14,16,19,21.80
2017,07,14,16,20,21.80
2017,07,14,16,21,21.80
2017,07,14,16,22,21.70
2017,07,14,16,23,21.70
2017,07,14,16,24,21.60
2017,07,14,16,25,21.50
2017,07,14,16,26,21.50
2017,07,14,16,27,21.40
2017,07,14,16,28,21.40
2017,07,14,16,29,21.40
2017,07,14,16,30,21.40
2017,07,14,16,31,21.30
2017,07,14,16,32,21.30
2017,07,14,16,33,21.30
2017,07,14,16,34,21.20
2017,07,14,16,35,21.20
2017,07,14,16,36,21.10
2017,07,14,16,37,21.10
2017,07,14,16,38,21.10
2017,07,14,16,39,21.10
2017,07,14,16,40,21.10
2017,07,14,16,41,21.10
2017,07,14,16,42,21.10
2017,07,14,16,43,21.10
2017,07,14,16,44,21.10
2017,07,14,16,45,21.10
2017,07,14,16,46,21.20
2017,07,14,16,47,21.20
2017,07,14,16,48,21.20
2017,07,14,16,49,21.20
2017,07,14,16,50,21.30
2017,07,14,16,51,21.30
2017,07,14,16,52,21.30
2017,07,14,16,53,21.30
2017,07,14,16,54,21.30
2017,07,14,16,55,21.30
2017,07,14,16,56,21.40
2017,07,14,16,57,21.60
2017,07,14,16,58,21.70
2017,07,14,16,59,21.80
2017,07,14,17,00,22.00
2017,07,14,17,01,22.10
2017,07,14,17,02,22.20
2017,07,14,17,03,22.30
2017,07,14,17,04,22.30
2017,07,14,17,05,22.30
2017,07,14,17,06,22.20
2017,07,14,17,07,22.20
2017,07,14,17,08,22.10
2017,07,14,17,09,22.00
2017,07,14,17,10,21.90
2017,07,14,17,11,21.90
2017,07,14,17,12,21.80
2017,07,14,17,13,21.80
2017,07,14,17,14,21.70
2017,07,14,17,15,21.70
2017,07,14,17,16,21.70
2017,07,14,17,17,21.70
2017,07,14,17,18,21.70
2017,07,14,17,19,21.70